[[{"header":{"parameterUnit":"m.s-1","parameterCategory":1,"la1":30.2991,"la2":30.254,"lo1":-89.0895,"lo2":-89.0444,"dy":0.0017,"dx":0.0017,"nx":28,"ny":28,"refTime":"2024-05-12T03:00:00:Z","depth":0,"parameterNumber":2,"parameterNumberName":"U-component_of_WINDS"},"data":[0,0,0,0,0,0,0,0,0,0,0,0,0,0,0,0,0,0,0,0,0,0,0,0,0,0,0,0,0,0,0,0,0,0,0,0,0,0,0,0,0,0,0,0,0,0,0,0,0,0,0,0,0,0,0,0,0,0,1.4843,1.4843,0,1.484,1.484,1.484,1.4834,1.4834,1.4834,1.4833,1.4829,1.4829,1.4829,0,0,0,0,0,0,0,0,0,0,0,0,0,1.4839,1.4839,1.4843,1.4843,1.4843,1.484,1.484,1.484,1.4834,1.4834,1.4834,1.4833,1.4829,1.4829,1.4829,0,0,0,0,0,0,0,0,0,0,0,0,0,1.4839,1.4839,1.4843,1.4839,1.4839,1.484,1.484,1.484,1.4834,1.4834,1.4834,1.4833,1.4829,1.4829,1.4829,1.4832,0,0,1.4829,1.4829,0,0,0,0,0,0,0,0,1.4839,1.4839,1.484,1.484,1.4839,1.4837,1.4837,1.4837,1.4834,1.4836,1.4833,1.4833,1.4832,1.4831,1.4831,1.4832,1.4832,1.4829,1.4829,1.4829,1.4829,0,0,0,0,0,0,0,1.4839,1.4839,1.4842,1.484,1.484,1.4837,1.4837,1.4837,1.4835,1.4836,1.4835,1.4835,1.4831,1.4831,1.4831,1.4832,1.4829,1.4829,1.4829,1.4829,1.4833,1.4833,0,0,0,0,0,0,1.484,1.4839,1.4842,1.4842,1.4839,1.4837,1.4837,1.4838,1.4835,1.4834,1.4835,1.4835,1.4831,1.4831,1.4831,1.4834,1.4829,1.4829,1.4829,1.4833,1.4833,1.4833,0,0,0,0,0,0,1.484,1.484,1.4842,1.484,1.484,1.4837,1.4839,1.4838,1.4838,1.4834,1.4834,1.4836,1.4831,1.4831,1.4832,1.4833,1.4829,1.4829,1.4833,1.4833,1.4833,1.484,0,0,0,0,0,0,1.484,1.484,1.4842,1.484,1.484,1.4844,1.4839,1.4838,1.4838,1.4838,1.4835,1.4834,1.4831,1.4832,1.4832,1.4833,1.4829,1.4833,1.4833,1.4833,1.484,1.484,1.4841,0,0,0,0,0,1.4839,1.4844,1.4843,1.4843,1.4844,1.4844,1.4844,1.4841,1.4839,1.484,1.4837,1.4834,1.4833,1.4832,1.4832,1.4833,1.4833,1.4833,1.4833,1.4839,1.484,1.4841,0,0,0,0,0,0,1.4847,1.4844,1.4842,1.4847,1.4846,1.4843,1.4845,1.4843,1.4842,1.4841,1.4837,1.4836,1.4837,1.4835,1.4834,1.4835,1.4832,1.4832,1.4837,1.4838,1.4838,1.4839,1.4829,0,0,0,0,0,1.4849,1.4851,1.4848,1.4852,1.4852,1.4849,1.4849,1.4846,1.4845,1.4844,1.4842,1.484,1.4838,1.4838,1.4837,1.4839,1.4837,1.484,1.4841,1.4841,1.4841,1.484,1.4841,1.4834,1.4834,1.4834,0,0,1.4854,1.4852,1.4854,1.4854,1.4853,1.4853,1.4848,1.485,1.485,1.4844,1.4845,1.4843,1.484,1.4841,1.4841,1.4839,1.4843,1.4842,1.4842,1.4842,1.4841,1.4841,1.4842,1.4834,1.4834,1.4834,0,0,1.4862,1.4862,1.4865,1.4863,1.4862,1.4859,1.486,1.4857,1.4855,1.4856,1.4851,1.485,1.4849,1.4847,1.4845,1.485,1.4847,1.485,1.4854,1.4853,1.4854,1.4854,1.4855,1.4855,1.485,1.485,1.485,0,1.4868,1.487,1.4866,1.4868,1.4867,1.4862,1.4864,1.4862,1.486,1.4859,1.4857,1.4854,1.4852,1.4852,1.4852,1.4852,1.4851,1.4851,1.4854,1.4854,1.4855,1.4855,1.4855,1.4851,1.4851,1.4851,1.4851,0,1.4876,1.4877,1.4879,1.4877,1.4877,1.4878,1.4874,1.4874,1.487,1.4868,1.4867,1.4864,1.4861,1.4861,1.4858,1.4859,1.4858,1.4855,1.4852,1.4856,1.4856,1.4856,1.4851,1.4851,1.4851,1.4851,0,0,1.489,1.4885,1.4886,1.4884,1.4881,1.4881,1.4881,1.4879,1.4878,1.4876,1.4875,1.4873,1.487,1.4868,1.4865,1.4864,1.4866,1.4861,1.4861,1.4861,1.4866,1.4868,1.4868,1.4864,1.4864,1.4864,1.4866,0,1.4898,1.4899,1.4895,1.4897,1.4897,1.4891,1.4891,1.4888,1.4884,1.4883,1.4879,1.4877,1.4873,1.4872,1.4871,1.4867,1.4867,1.4866,1.4862,1.4862,1.4863,1.4869,1.4871,1.4873,1.4866,1.4866,1.4866,0,1.4907,1.4905,1.4907,1.4902,1.4902,1.4902,1.4898,1.4897,1.4893,1.489,1.4888,1.4883,1.4881,1.4878,1.4874,1.4874,1.4871,1.4868,1.4868,1.4868,1.4864,1.4867,1.4874,1.4874,1.4866,1.4866,1.4866,0,1.4916,1.4914,1.4915,1.4913,1.4908,1.4907,1.4905,1.49,1.4899,1.4895,1.4894,1.489,1.4887,1.4884,1.4878,1.4876,1.4874,1.4871,1.4871,1.4871,1.4871,1.4871,1.4877,1.487,1.487,1.487,1.487,0,1.4925,1.4926,1.4918,1.4919,1.4919,1.4913,1.4913,1.491,1.4906,1.4904,1.4898,1.4896,1.4889,1.4885,1.488,1.4877,1.4876,1.4873,1.4872,1.4874,1.4874,1.4872,1.4872,1.487,1.487,1.487,1.487,0,1.4935,1.4931,1.493,1.4924,1.4923,1.4923,1.4917,1.4916,1.4912,1.491,1.4909,1.4902,1.4898,1.4891,1.4885,1.4881,1.4879,1.4877,1.488,1.488,1.488,1.488,1.4884,1.4884,1.4878,1.4878,1.4878,0,1.4941,1.4942,1.4935,1.4934,1.4932,1.493,1.4928,1.4921,1.4919,1.4913,1.4912,1.4908,1.4904,1.4897,1.489,1.4885,1.4882,1.4884,1.4882,1.4883,1.4881,1.4881,1.4881,1.4885,1.4885,1.4885,1.4885,0,1.4951,1.4948,1.4946,1.4942,1.494,1.4937,1.4933,1.4932,1.4924,1.4922,1.4918,1.4915,1.4908,1.4902,1.4896,1.4892,1.4886,1.4886,1.4885,1.4887,1.4889,1.4887,1.4882,1.4886,1.4886,1.4886,1.4886,1.4886,1.4959,1.4958,1.4954,1.4951,1.4947,1.4943,1.4942,1.4937,1.4933,1.4928,1.4924,1.4919,1.4912,1.4903,1.4899,1.4894,1.4892,1.4892,1.4892,1.4892,1.4892,1.489,1.4893,1.4893,1.4893,1.4893,1.4893,0,1.4968,1.4964,1.4961,1.4956,1.4953,1.4949,1.4944,1.4942,1.4938,1.4933,1.4929,1.4923,1.4917,1.491,1.4903,1.49,1.4898,1.4899,1.4899,1.4898,1.4895,1.4895,1.4901,1.4901,1.4901,1.4901,1.4901,1.4901,1.4972,1.4971,1.4967,1.4963,1.4959,1.4955,1.4952,1.4948,1.4944,1.4937,1.4933,1.4928,1.4921,1.4914,1.4908,1.4905,1.4903,1.4905,1.4901,1.4899,1.4898,1.4897,1.4898,1.4904,1.4904,1.4905,1.4905,1.4905]},{"header":{"parameterUnit":"m.s-1","parameterCategory":1,"la1":30.2991,"la2":30.254,"lo1":-89.0895,"lo2":-89.0444,"dy":0.0017,"dx":0.0017,"nx":28,"ny":28,"refTime":"2024-05-12T03:00:00:Z","depth":0,"parameterNumber":3,"parameterNumberName":"V-component_of_WINDS"},"data":[0,0,0,0,0,0,0,0,0,0,0,0,0,0,0,0,0,0,0,0,0,0,0,0,0,0,0,0,0,0,0,0,0,0,0,0,0,0,0,0,0,0,0,0,0,0,0,0,0,0,0,0,0,0,0,0,0,0,7.4901,7.4903,0,7.5067,7.5069,7.507,7.5114,7.5113,7.5112,7.5111,7.5271,7.5276,7.5281,0,0,0,0,0,0,0,0,0,0,0,0,0,7.4613,7.4618,7.4901,7.4903,7.4905,7.5066,7.5069,7.5071,7.5114,7.5113,7.5112,7.5111,7.5269,7.5275,7.5282,0,0,0,0,0,0,0,0,0,0,0,0,0,7.4754,7.462,7.4901,7.4946,7.4952,7.5066,7.5069,7.5072,7.5114,7.5113,7.5111,7.511,7.5267,7.5275,7.5282,7.536,0,0,7.5306,7.5309,0,0,0,0,0,0,0,0,7.4746,7.4765,7.4938,7.4943,7.495,7.5068,7.5026,7.5168,7.5115,7.5052,7.5111,7.5109,7.5204,7.5217,7.5251,7.5367,7.5374,7.5307,7.5312,7.5315,7.5317,0,0,0,0,0,0,0,7.4736,7.4758,7.4966,7.494,7.4948,7.4956,7.4974,7.5053,7.5134,7.5058,7.5061,7.5081,7.5207,7.5243,7.5255,7.5376,7.5307,7.5313,7.5318,7.5321,7.5565,7.5567,0,0,0,0,0,0,7.472,7.4749,7.4961,7.4971,7.4843,7.4962,7.4983,7.5032,7.5133,7.5148,7.5082,7.5082,7.5231,7.5246,7.5261,7.5359,7.5315,7.5322,7.5327,7.5563,7.5565,7.5567,0,0,0,0,0,0,7.4714,7.4738,7.4954,7.4861,7.489,7.4969,7.5023,7.5036,7.5072,7.5152,7.5166,7.5105,7.523,7.525,7.5336,7.5365,7.5326,7.5333,7.5561,7.5564,7.5566,7.5555,0,0,0,0,0,0,7.4705,7.4736,7.4768,7.4862,7.4894,7.5029,7.5025,7.504,7.5087,7.5089,7.5177,7.519,7.5231,7.5324,7.5343,7.5375,7.5339,7.5559,7.5562,7.5565,7.5553,7.5557,7.556,0,0,0,0,0,7.4695,7.4756,7.477,7.4795,7.4937,7.5031,7.5049,7.5097,7.5089,7.5121,7.5172,7.5187,7.5359,7.5332,7.5355,7.5389,7.5557,7.5561,7.5565,7.5551,7.5556,7.556,0,0,0,0,0,0,7.466,7.4769,7.4785,7.4879,7.4946,7.5038,7.5079,7.51,7.5168,7.5167,7.5221,7.524,7.5323,7.5364,7.5333,7.5469,7.5458,7.5466,7.5439,7.5445,7.5448,7.5436,7.5345,0,0,0,0,0,7.4664,7.4734,7.4824,7.4898,7.4931,7.5,7.5042,7.5074,7.5144,7.5171,7.5228,7.5293,7.5362,7.5405,7.5472,7.5559,7.5579,7.5594,7.5597,7.56,7.5607,7.5656,7.5664,7.5581,7.5581,7.5581,0,0,7.4671,7.4739,7.478,7.4893,7.4948,7.5017,7.5023,7.5095,7.5146,7.5181,7.5267,7.5311,7.5386,7.5473,7.5514,7.551,7.5634,7.5605,7.5607,7.5612,7.5661,7.5669,7.5676,7.5583,7.5583,7.5582,0,0,7.472,7.4779,7.4848,7.4904,7.4989,7.5035,7.5051,7.5141,7.5173,7.526,7.5288,7.5348,7.5465,7.5518,7.556,7.5631,7.5647,7.5651,7.5669,7.5717,7.5723,7.5729,7.5755,7.5763,7.5657,7.5657,7.5657,0,7.4718,7.4826,7.488,7.4953,7.5001,7.5039,7.5108,7.5159,7.5259,7.5291,7.5286,7.5435,7.5488,7.5588,7.5606,7.5638,7.5658,7.5641,7.5719,7.5725,7.5732,7.5756,7.5766,7.5657,7.5657,7.5657,7.5657,0,7.4819,7.4894,7.4938,7.504,7.5093,7.5163,7.5225,7.5272,7.5299,7.5344,7.5432,7.5498,7.558,7.5606,7.5631,7.571,7.5705,7.5708,7.5698,7.5739,7.5763,7.5773,7.5657,7.5657,7.5657,7.5657,0,0,7.4851,7.4982,7.4998,7.5044,7.5141,7.5198,7.5269,7.5353,7.5392,7.546,7.552,7.5619,7.5624,7.5672,7.5703,7.5745,7.5797,7.5744,7.5746,7.5752,7.5888,7.5885,7.5895,7.5809,7.5811,7.5813,7.5882,0,7.4912,7.5045,7.5096,7.5202,7.5271,7.5309,7.537,7.5435,7.5479,7.5541,7.5588,7.5658,7.5659,7.5688,7.5731,7.5782,7.5825,7.5777,7.5863,7.5866,7.5844,7.5908,7.5905,7.5967,7.5891,7.5893,7.5894,0,7.5002,7.5076,7.519,7.528,7.5311,7.5366,7.5447,7.5507,7.558,7.5609,7.5664,7.5693,7.5767,7.5752,7.5853,7.5819,7.5857,7.5887,7.5891,7.5901,7.5883,7.5919,7.5988,7.5997,7.591,7.5908,7.5907,0,7.5015,7.5141,7.5227,7.5265,7.5372,7.541,7.5455,7.5528,7.5575,7.5644,7.5675,7.5751,7.5792,7.5849,7.5898,7.5883,7.5995,7.5984,7.602,7.6018,7.6042,7.6039,7.6117,7.6065,7.6065,7.6065,7.6065,0,7.5079,7.5147,7.5234,7.5287,7.5364,7.5421,7.5495,7.5542,7.5606,7.5667,7.5702,7.5758,7.5819,7.5881,7.5919,7.5998,7.6015,7.604,7.6049,7.6037,7.6034,7.6063,7.606,7.6068,7.6067,7.6066,7.6066,0,7.5106,7.5167,7.5263,7.5357,7.5382,7.5435,7.5514,7.5565,7.5611,7.5687,7.5708,7.5779,7.5855,7.5909,7.6006,7.6031,7.6115,7.6124,7.6092,7.6097,7.613,7.6126,7.6229,7.6245,7.6182,7.6182,7.6183,0,7.5143,7.5197,7.5298,7.5343,7.539,7.5461,7.551,7.5567,7.5616,7.5705,7.5745,7.5824,7.589,7.6009,7.6068,7.6142,7.6153,7.6184,7.6164,7.615,7.6154,7.615,7.6156,7.6186,7.6187,7.6187,7.6187,0,7.5203,7.5231,7.5302,7.5385,7.5444,7.551,7.5577,7.5611,7.5679,7.5733,7.5813,7.5864,7.5965,7.6042,7.6122,7.6166,7.6188,7.6193,7.6206,7.6194,7.6173,7.6186,7.61,7.6191,7.619,7.619,7.619,7.619,7.5236,7.5287,7.5367,7.5445,7.5502,7.5564,7.5618,7.5671,7.574,7.5829,7.5857,7.5939,7.6011,7.6122,7.6167,7.623,7.6229,7.6246,7.6251,7.6255,7.6254,7.6163,7.6245,7.6245,7.6245,7.6245,7.6245,0,7.5299,7.5352,7.5424,7.5519,7.558,7.5598,7.5673,7.5723,7.5796,7.5863,7.5928,7.6019,7.6095,7.616,7.6238,7.6277,7.6288,7.6295,7.6293,7.6303,7.6251,7.6233,7.6284,7.6284,7.6284,7.6284,7.6284,7.6284,7.5338,7.5425,7.5462,7.5577,7.5629,7.5713,7.5755,7.5811,7.5865,7.5967,7.6031,7.6074,7.614,7.6223,7.6293,7.631,7.6337,7.6341,7.636,7.6311,7.6306,7.6302,7.6285,7.6346,7.6347,7.6407,7.6407,7.6408]}]]